User: anonymous   Login
Location: G�ppingen
(48.7089°N, 9.6563°E)
Time: 12:19:57
(UTC+02:00)
Language:

XW-2C - Orbit

View from above orbital plane
View from above orbital plane
View from above satellite
View from above satellite

Ground track
Ground track

The orbit data is extracted from the following two-line orbital elements,

1 40906U 15049H   19296.08141578  .00000307  00000-0  19516-4 0  9995
2 40906  97.4721 296.1006 0016045 117.3117 283.5185 15.15787429226148
Epoch (UTC): 23 October 2019 01:57:14
Eccentricity: 0.0016045
inclination: 97.4721°
perigee height: 507 km
apogee height: 529 km
right ascension of ascending node: 296.1006°
argument of perigee: 117.3117°
revolutions per day: 15.15787429
mean anomaly at epoch: 283.5185°
orbit number at epoch: 22614

The dashed part of the orbit path shows where the satellite is in the earth's shadow,  

DLR